Location: Devargunta
(16.7631°N, 80.9077°E)
Time: 15:39:30
(UTC+00:00)

Cosmos 540 Rocket - Pass Details

Date: 29 November 2021
Orbit: 739 x 754 km, 74.1° (Epoch: 17 January)

Event Time Altitude Azimuth Distance (km) Brightness Sun altitude
Exits shadow 23:00:53 - 8° (N) 2,462 6.0 -25.2°
Reaches altitude 10° 23:01:28 10° 11° (N) 2,259 5.9 -25.0°
Maximum altitude 23:06:02 32° 74° (ENE) 1,258 5.1 -24.0°
Drops below altitude 10° 23:10:35 10° 137° (SE) 2,264 6.7 -23.0°
Sets 23:13:09 0° 147° (SSE) 3,189 7.5 -22.4°
